This demonstration page uses our WeatherBlox Daily Observations layout. Learn more.

Left ArrowRight Arrow

Hourly Observations for June 7, 2018

Temp ( °F °C ) Dew Point ( °F °C ) Humidity (%) Winds ( mph kmh ) Pressure ( in mb ) Visibility ( mi km ) Precip ( " mm )
12:53 am 00:53 Clear 74 23.3 57 13.9 56 56 SE 10 17 29.83 1010 10 16 0.00 0.00
1:53 am 01:53 Clear 74 23.3 60 15.6 62 62 ESE 14 22 29.84 1011 10 16 0.00 0.00
2:53 am 02:53 Partly Cloudy 73 22.8 63 17.2 71 71 SE 23 37 29.90 1013 10 16 0.00 0.00
3:22 am 03:22 Mostly Cloudy with Nearby Thunderstorms 72 22 61 16 69 69 SSE 22 35 29.91 1013 10 16 0.00 0.00
3:43 am 03:43 Cloudy with Nearby Thunderstorms 72 22.2 60 15.6 66 66 SW 16 26 29.97 1015 10 16 0.00 0.00
3:53 am 03:53 Cloudy with Nearby Thunderstorms 73 22.8 61 16.1 66 66 SW 13 20 29.98 1015 10 16 0.00 0.00
4:09 am 04:09 Cloudy with Light Rain 70 21.1 63 17.2 79 79 WSW 9 15 30.00 1016 10 16 0.00 0.03
4:18 am 04:18 Cloudy with Thunderstorms 69 20.6 64 17.8 84 84 SW 7 11 30.00 1016 8 13 0.02 0.51
4:50 am 04:50 Cloudy with Nearby Thunderstorms 66 19 64 18 94 94 WSW 9 15 30.00 1016 7 11 0.00 0.00
4:53 am 04:53 Cloudy with Nearby Thunderstorms 67 19.4 64 17.8 91 91 WSW 8 13 30.01 1016 7 11 0.06 1.52
5:19 am 05:19 Cloudy with Thunderstorms 66 19 64 18 94 94 SSW 12 19 30.00 1016 5 8 0.00 0.00
5:32 am 05:32 Cloudy with Light Rain 66 19 64 18 94 94 SSW 13 20 29.97 1015 8 13 0.00 0.00
5:53 am 05:53 Cloudy with Rain 66 18.9 64 17.8 93 93 S 13 20 29.93 1014 6 10 0.15 3.81
6:53 am 06:53 Mostly Cloudy with Light Rain 66 18.9 60 15.6 81 81 SE 13 20 29.85 1011 10 16 0.04 1.02
7:53 am 07:53 Sunny 68 20 59 15 73 73 SSE 12 19 29.85 1011 10 16 0.01 0.25
8:53 am 08:53 Sunny 69 20.6 61 16.1 76 76 NE 7 11 29.92 1013 10 16 0.00 0.00
9:53 am 09:53 Sunny 72 22.2 62 16.7 71 71 Calm 29.92 1013 10 16 0.00 0.00
10:53 am 10:53 Sunny 74 23.3 63 17.2 69 69 VRB 3 6 29.94 1014 10 16 0.00 0.00
11:53 am 11:53 Sunny 76 24.4 63 17.2 64 64 VRB 5 7 29.95 1014 10 16 0.00 0.00
12:53 pm 12:53 Mostly Sunny 76 24.4 64 17.8 67 67 SSE 8 13 29.95 1014 10 16 0.00 0.00
1:53 pm 13:53 Mostly Cloudy 77 25 64 17.8 64 64 VRB 5 7 29.95 1014 10 16 0.00 0.00
2:53 pm 14:53 Mostly Cloudy 79 26.1 65 18.3 62 62 undefined N/A 29.95 1014 10 16 0.00 0.00
3:53 pm 15:53 Partly Cloudy 81 27.2 66 18.9 61 61 VRB 6 9 29.93 1014 10 16 0.00 0.00
4:53 pm 16:53 Partly Cloudy 81 27.2 65 18.3 58 58 SSE 8 13 29.93 1014 10 16 0.00 0.00
5:53 pm 17:53 Sunny 81 27.2 64 17.8 57 57 SSE 12 19 29.92 1013 10 16 0.00 0.00
6:53 pm 18:53 Sunny 80 26.7 64 17.8 58 58 SE 13 20 29.91 1013 10 16 0.00 0.00
7:53 pm 19:53 Sunny 80 26.7 64 17.8 58 58 SSE 9 15 29.91 1013 10 16 0.00 0.00
8:53 pm 20:53 Sunny 77 25 65 18.3 66 66 SE 7 11 29.91 1013 10 16 0.00 0.00
9:53 pm 21:53 Clear 76 24.4 65 18.3 69 69 SSE 7 11 29.92 1013 10 16 0.00 0.00
10:53 pm 22:53 Clear 74 23.3 65 18.3 74 74 SSE 8 13 29.95 1014 10 16 0.00 0.00
11:53 pm 23:53 Clear 72 22.2 64 17.8 76 76 SSE 5 7 29.97 1015 10 16 0.00 0.00

Powered by AerisWeather